Regional Weather Roundup
Issued by NWS

Current Version | Previous Version | Text Only | Print | Product List | Glossary On
Versions: 1 2 3 4 5 6 7 8 9 10 11 12 13 14 15 16 17 18 19 20 21 22 23 24 25 26 27 28 29 30 31 32 33 34 35 36 37 38 39 40 41 42 43 44 45 46 47 48 49 50
872
ASUS43 KTOP 282208
RWRKS

WEATHER ROUNDUP FOR KANSAS
NATIONAL WEATHER SERVICE GOODLAND KS
500 PM CDT THU JUL 28 2016

NOTE:  "FAIR" INDICATES FEW OR NO CLOUDS BELOW 12,000 FEET WITH NO
SIGNIFICANT WEATHER AND/OR OBSTRUCTIONS TO VISIBILITY.

KSZ001>006-013>018-027>032-041>047-282300-
NORTHWEST KANSAS

CITY           SKY/WX    TMP DP  RH WIND       PRES   REMARKS
GOODLAND       SUNNY     84  62  47 E9        30.06F
HAYS           CLOUDY    88  64  45 SE7       29.95S
HILL CITY      CLOUDY    71  62  73 N20G39    30.04R
RUSSELL        CLOUDY    90  65  43 E8        29.94R
$$

KSZ061>065-074>080-084>089-282300-
SOUTHWEST KANSAS

CITY           SKY/WX    TMP DP  RH WIND       PRES   REMARKS
DODGE CITY     SUNNY     90  60  36 SE9       29.96F
ELKHART          N/A     93  61  34 SE13        N/A
GARDEN CITY    SUNNY     89  61  38 SE15      29.98F
GREAT BEND     MOSUNNY   90  70  51 SE10      29.93F HX  95
LIBERAL        SUNNY     95  57  28 SE10      30.00F
PRATT          SUNNY     90  58  34 E6        29.94F
$$

KSZ066>073-081>083-090>101-282300-
SOUTHEAST KANSAS

CITY           SKY/WX    TMP DP  RH WIND       PRES   REMARKS
CHANUTE        SUNNY     91  70  49 VRB5      29.93S HX  96
COFFEYVILLE    CLOUDY    89  74  60 CALM      29.93S HX  98
HUTCHINSON     MOSUNNY   93  67  42 E12G18    29.92F HX  96
MEDICINE LODGE   N/A     98  56  24 VRB3      29.91F HX  96
NEWTON         CLOUDY    89  68  49 VRB6      29.95F
PARSONS        MOSUNNY   90  72  55 CALM      29.94S HX  97
WICHITA INTL   PTSUNNY   90  72  55 SE10      29.93F HX  97
WICHITA JABRA  CLOUDY    86  72  62 SE12      29.94F
WINFIELD       PTSUNNY   75  66  73 E6        29.97F
$$

KSZ007>012-019>026-033>040-048>060-102>105-282300-
NORTHEAST KANSAS

CITY           SKY/WX    TMP DP  RH WIND       PRES   REMARKS
CONCORDIA      SUNNY     88  63  43 E8        29.95F
EMPORIA        SUNNY     91  64  40 N9        29.94F
LAWRENCE       MOSUNNY   90  71  53 N9        29.91F HX  96
MANHATTAN      MOSUNNY   91  67  44 SE6       29.91F
MARYSVILLE     MOSUNNY   88  64  45 NE3       29.94R
OLATHE IND     SUNNY     90  67  46 N13       29.93F
OLATHE EXE     MOSUNNY   90  66  45 N10       29.92F
SALINA         MOSUNNY   92  63  38 E13       29.91F
TOPEKA BILLARD SUNNY     91  67  44 NE9       29.91F
TOPEKA FORBES  SUNNY     93  67  42 NE7       29.92F HX  96
$$




USA.gov is the U.S. government's official web portal to all federal, state and local government web resources and services.